Weather History for KFLL - October, 2010

Change the Weather History Date:

Friday, October 15, 2010

  Actual Average Record
Temperature  
Mean Temperature 78 °F 81 °F  
Max Temperature 87 °F 86 °F 92 °F (1925)
Min Temperature 68 °F 76 °F 57 °F (1955)
Degree Days  
Heating Degree Days 0 0  
Month to date heating degree days 0 0  
Since 1 July heating degree days 0 0  
Cooling Degree Days 13 16  
Month to date cooling degree days 202 251  
Year to date cooling degree days 3687 3963  
Growing Degree Days 28 (Base 50)    
Moisture  
Dew Point 67 °F    
Average Humidity 68    
Maximum Humidity 82    
Minimum Humidity 53    
Precipitation  
Precipitation 0.00 in 0.22 in 6.19 in (1999)
Month to date precipitation 2.13 4.06  
Year to date precipitation 56.38 53.72  
Snow  
Snow 0.00 in - - ()
Month to date snowfall 0.0  
Since 1 July snowfall 0.0  
Since 1 September snowfall 0.0  
Snow Depth 0.00 in    
Sea Level Pressure  
Sea Level Pressure 29.92 in    
Wind  
Wind Speed 8 mph (NNE)    
Max Wind Speed 16 mph    
Max Gust Speed -    
Visibility 10 miles    
Events      
T = Trace of Precipitation, MM = Missing Value Source: NWS Daily Summary

Daily Weather History Graph

Daily Weather History Graph

Search for Another Location

Airport or City:

Trip Planner

Search our weather history database for the weather conditions in past years. The results will help you decide how hot, cold, wet, or windy it might be!

Date:

Astronomy

Oct. 15, 2010 Rise Set
Actual Time 7:19 AM EDT 6:52 PM EDT
Civil Twilight 6:56 AM EDT 7:16 PM EDT
Nautical Twilight 6:29 AM EDT 7:42 PM EDT
Astronomical Twilight 6:02 AM EDT 8:09 PM EDT
Moon 2:35 PM EDT (10/15) 12:53 AM EDT (10/15)
Length of Visible Light 12h 19m
Length of Day
11h 33m
First Quarter, 57% of the Moon is Illuminated
Oct 15
First Quarter
Oct 22
Full
Oct 30
Last Quarter
Nov 6
New
Nov 13
First Quarter

Hourly Weather History & Observations

Time (EDT) Temp. Heat Index Dew Point Humidity Pressure Visibility Wind Dir Wind Speed Gust Speed Precip Events Conditions
12:53 AM 76.1 °F - 70.9 °F 84% 29.91 in 10.0 mi Calm Calm - N/A   Mostly Cloudy
1:53 AM 77.4 °F - 70.7 °F 80% 29.90 in 10.0 mi North 5.8 mph - N/A   Scattered Clouds
2:53 AM 77.2 °F - 70.5 °F 80% 29.89 in 10.0 mi North 3.5 mph - N/A   Mostly Cloudy
3:53 AM 77.0 °F - 69.8 °F 78% 29.88 in 10.0 mi NNW 8.1 mph - N/A   Scattered Clouds
4:53 AM 77.0 °F - 70.2 °F 79% 29.89 in 10.0 mi NNW 10.4 mph - N/A   Mostly Cloudy
5:53 AM 69.8 °F - 58.5 °F 67% 29.90 in 10.0 mi North 9.2 mph - N/A   Mostly Cloudy
6:53 AM 73.0 °F - 60.8 °F 65% 29.92 in 10.0 mi NNE 6.9 mph - N/A   Mostly Cloudy
7:53 AM 72.3 °F - 64.8 °F 77% 29.93 in 10.0 mi NNE 5.8 mph - N/A   Mostly Cloudy
8:53 AM 72.3 °F - 61.5 °F 69% 29.95 in 10.0 mi North 5.8 mph - N/A   Mostly Cloudy
9:53 AM 75.9 °F - 65.7 °F 70% 29.95 in 10.0 mi NNW 5.8 mph - N/A   Mostly Cloudy
10:53 AM 82.9 °F 86.5 °F 69.1 °F 63% 29.95 in 10.0 mi NNE 10.4 mph - N/A   Partly Cloudy
11:53 AM 87.4 °F 91.2 °F 68.4 °F 53% 29.94 in 10.0 mi NNE 9.2 mph - N/A   Partly Cloudy
12:53 PM 84.6 °F 87.6 °F 68.0 °F 57% 29.93 in 10.0 mi ENE 16.1 mph - N/A   Partly Cloudy
1:53 PM 86.0 °F 90.4 °F 69.8 °F 58% 29.90 in 10.0 mi ENE 15.0 mph - N/A   Partly Cloudy
2:53 PM 86.0 °F 90.4 °F 69.8 °F 58% 29.89 in 10.0 mi ENE 16.1 mph - N/A   Partly Cloudy
3:53 PM 86.0 °F 90.4 °F 69.8 °F 58% 29.88 in 10.0 mi ENE 12.7 mph - N/A   Partly Cloudy
4:53 PM 84.2 °F 88.4 °F 69.8 °F 62% 29.88 in 10.0 mi ENE 11.5 mph - N/A   Partly Cloudy
5:53 PM 82.4 °F 85.4 °F 68.0 °F 62% 29.90 in 10.0 mi NE 9.2 mph - N/A   Partly Cloudy
6:53 PM 80.6 °F 83.2 °F 68.0 °F 65% 29.91 in 10.0 mi NE 9.2 mph - N/A   Partly Cloudy
7:53 PM 78.8 °F - 66.2 °F 65% 29.92 in 10.0 mi NE 6.9 mph - N/A   Partly Cloudy
8:53 PM 78.8 °F - 66.2 °F 65% 29.94 in 10.0 mi NE 8.1 mph - N/A   Mostly Cloudy
9:53 PM 77.0 °F - 64.4 °F 65% 29.96 in 10.0 mi North 6.9 mph - N/A   Partly Cloudy
10:53 PM 75.2 °F - 62.6 °F 65% 29.98 in 10.0 mi North 5.8 mph - N/A   Partly Cloudy
11:53 PM 73.4 °F - 62.6 °F 69% 29.99 in 10.0 mi NNW 3.5 mph - N/A   Partly Cloudy